Location: ?ejeti?ky
(50.4060°N, 14.9016°E)
Time: 20:41:02
(UTC+00:00)

X-37B - Pass Details

Date: 11 December 2021
Orbit: 334 x 337 km, 45.0° (Epoch: 11 January)

Event Time Altitude Azimuth Distance (km) Brightness Sun altitude
Rises 17:00:37 0° 246° (WSW) 2,102 5.9 -18.6°
Reaches altitude 10° 17:02:47 10° 233° (SW) 1,266 4.2 -18.9°
Enters shadow 17:05:05 26° 179° (S) 712 2.0 -19.3°
